Location: Bullfrog
(37.5121°N, 110.7330°W)
Time: 11:58:50
(UTC-07:00)

Hubble Space Telescope - Pass Details

Date: 23 January 2026
Orbit: 478 x 480 km, 28.5° (Epoch: 5 February)

Event Time Altitude Azimuth Distance (km) Brightness Sun altitude
Rises 19:45:53 0° 234° (SW) 2,510 5.1 -25.4°
Reaches altitude 10° 19:48:36 10° 214° (SSW) 1,634 3.7 -25.9°
Enters shadow 19:49:46 15° 197° (SSW) 1,374 3.1 -26.1°
